QPF
0.00 0.00 0.00 0.00 0.00 0.00 0.00 0.00 0.00 0.00 0.00 0.00 0.00 0.00 0.00 0.00 0.00 0.00 0.01 0.01 0.02 0.04 0.04 0.04 0.03 0.04 0.03 0.04 0.05 0.06 0.06 0.06 0.06 0.07 0.08 0.07 0.08 0.10 0.17 0.17 0.08 0.04 0.04 0.04
0.00 0.00 0.00 0.00 0.00 0.00 0.00 0.00 0.00 0.00 0.00 0.00 0.00 0.00 0.00 0.00 0.00 0.00 0.02 0.05 0.02 0.02 0.03 0.04 0.03 0.03 0.05 0.05 0.04 0.05 0.06 0.07 0.07 0.09 0.09 0.07 0.07 0.08 0.10 0.12 0.08 0.04 0.04 0.04
0.00 0.00 0.00 0.00 0.00 0.00 0.00 0.00 0.00 0.00 0.00 0.00 0.00 0.00 0.00 0.00 0.00 0.01 0.01 0.01 0.01 0.01 0.02 0.04 0.03 0.04 0.07 0.06 0.05 0.06 0.06 0.05 0.06 0.11 0.14 0.12 0.12 0.11 0.09 0.09 0.09 0.06 0.04 0.04
0.00 0.00 0.00 0.00 0.00 0.00 0.00 0.00 0.00 0.00 0.00 0.00 0.00 0.00 0.00 0.00 0.01 0.02 0.02 0.01 0.01 0.02 0.03 0.05 0.05 0.07 0.10 0.08 0.07 0.08 0.08 0.05 0.06 0.09 0.11 0.10 0.09 0.08 0.06 0.06 0.09 0.10 0.07 0.05
0.00 0.00 0.00 0.00 0.00 0.00 0.00 0.00 0.00 0.00 0.00 0.00 0.00 0.00 0.00 0.01 0.01 0.01 0.03 0.06 0.03 0.04 0.04 0.06 0.06 0.07 0.07 0.07 0.07 0.07 0.09 0.10 0.08 0.08 0.06 0.06 0.08 0.09 0.09 0.09 0.09 0.09 0.08 0.07
0.00 0.00 0.00 0.00 0.00 0.00 0.00 0.00 0.00 0.00 0.00 0.00 0.00 0.00 0.00 0.01 0.01 0.01 0.02 0.04 0.04 0.04 0.03 0.04 0.05 0.06 0.05 0.04 0.05 0.06 0.09 0.08 0.08 0.07 0.05 0.05 0.07 0.08 0.08 0.08 0.09 0.07 0.07 0.07
0.00 0.00 0.00 0.00 0.00 0.00 0.00 0.00 0.00 0.00 0.00 0.00 0.00 0.00 0.01 0.01 0.01 0.01 0.01 0.03 0.04 0.04 0.03 0.03 0.03 0.04 0.03 0.03 0.03 0.06 0.06 0.07 0.09 0.09 0.07 0.05 0.07 0.07 0.07 0.06 0.06 0.06 0.07 0.05
0.00 0.00 0.00 0.00 0.00 0.00 0.00 0.00 0.00 0.00 0.01 0.00 0.00 0.01 0.01 0.02 0.02 0.03 0.03 0.04 0.06 0.08 0.06 0.04 0.03 0.04 0.05 0.05 0.05 0.07 0.09 0.11 0.14 0.13 0.09 0.07 0.08 0.10 0.10 0.08 0.08 0.07 0.06 0.04
0.00 0.00 0.00 0.00 0.00 0.00 0.00 0.00 0.00 0.00 0.00 0.00 0.01 0.02 0.03 0.03 0.02 0.02 0.03 0.04 0.05 0.06 0.08 0.08 0.05 0.05 0.06 0.06 0.06 0.07 0.09 0.11 0.14 0.15 0.15 0.17 0.17 0.14 0.11 0.10 0.10 0.08 0.07 0.07
0.00 0.00 0.00 0.00 0.00 0.00 0.00 0.00 0.00 0.00 0.00 0.00 0.01 0.01 0.04 0.05 0.03 0.03 0.05 0.05 0.05 0.07 0.08 0.09 0.06 0.06 0.06 0.05 0.04 0.04 0.06 0.08 0.09 0.12 0.13 0.17 0.22 0.19 0.14 0.11 0.10 0.08 0.07 0.07
0.00 0.00 0.00 0.00 0.00 0.00 0.00 0.00 0.00 0.00 0.00 0.00 0.01 0.01 0.02 0.03 0.03 0.05 0.09 0.11 0.05 0.07 0.04 0.05 0.06 0.07 0.05 0.04 0.02 0.01 0.02 0.04 0.07 0.07 0.10 0.11 0.16 0.17 0.15 0.14 0.12 0.10 0.08 0.08
0.00 0.00 0.00 0.00 0.00 0.00 0.00 0.00 0.00 0.00 0.00 0.01 0.01 0.01 0.01 0.02 0.03 0.05 0.11 0.12 0.06 0.06 0.03 0.03 0.04 0.06 0.04 0.02 0.01 0.01 0.02 0.02 0.07 0.05 0.06 0.05 0.08 0.11 0.12 0.11 0.11 0.11 0.10 0.10
0.00 0.00 0.00 0.00 0.00 0.00 0.00 0.00 0.00 0.00 0.00 0.00 0.01 0.01 0.01 0.01 0.05 0.04 0.05 0.07 0.08 0.05 0.04 0.03 0.03 0.05 0.04 0.03 0.02 0.02 0.01 0.01 0.04 0.05 0.05 0.03 0.04 0.06 0.08 0.09 0.09 0.09 0.10 0.11
0.00 0.00 0.00 0.00 0.00 0.00 0.00 0.00 0.00 0.00 0.00 0.00 0.00 0.01 0.01 0.02 0.03 0.05 0.08 0.06 0.06 0.04 0.04 0.03 0.03 0.04 0.04 0.04 0.03 0.02 0.01 0.01 0.02 0.03 0.03 0.03 0.03 0.04 0.07 0.09 0.09 0.11 0.12 0.13
0.00 0.00 0.00 0.00 0.00 0.00 0.00 0.00 0.00 0.00 0.00 0.00 0.00 0.01 0.01 0.03 0.04 0.05 0.07 0.06 0.04 0.04 0.04 0.03 0.03 0.05 0.07 0.08 0.05 0.04 0.03 0.02 0.02 0.03 0.03 0.03 0.05 0.07 0.10 0.12 0.13 0.13 0.15 0.17
0.00 0.00 0.00 0.00 0.00 0.00 0.00 0.00 0.00 0.00 0.00 0.00 0.00 0.01 0.02 0.07 0.07 0.05 0.07 0.07 0.05 0.05 0.04 0.03 0.03 0.05 0.07 0.07 0.07 0.05 0.04 0.03 0.03 0.03 0.02 0.02 0.03 0.05 0.08 0.10 0.12 0.14 0.16 0.18
0.00 0.00 0.00 0.00 0.00 0.00 0.00 0.00 0.00 0.00 0.00 0.00 0.00 0.01 0.02 0.05 0.04 0.06 0.10 0.10 0.09 0.05 0.03 0.04 0.04 0.04 0.04 0.04 0.04 0.03 0.03 0.03 0.02 0.02 0.02 0.01 0.02 0.02 0.04 0.06 0.08 0.09 0.10 0.12
0.00 0.00 0.00 0.00 0.00 0.00 0.00 0.00 0.00 0.00 0.00 0.00 0.00 0.01 0.02 0.02 0.03 0.04 0.05 0.06 0.03 0.04 0.05 0.10 0.13 0.07 0.03 0.01 0.02 0.02 0.02 0.02 0.02 0.01 0.02 0.02 0.02 0.02 0.03 0.03 0.03 0.03 0.05 0.07
0.00 0.00 0.00 0.00 0.00 0.00 0.01 0.01 0.00 0.00 0.01 0.01 0.01 0.01 0.01 0.02 0.02 0.04 0.03 0.04 0.03 0.04 0.04 0.07 0.10 0.11 0.06 0.03 0.02 0.02 0.03 0.03 0.02 0.01 0.02 0.03 0.04 0.04 0.04 0.04 0.04 0.03 0.04 0.06
0.00 0.00 0.00 0.00 0.00 0.00 0.01 0.01 0.01 0.01 0.03 0.02 0.02 0.02 0.01 0.01 0.02 0.05 0.07 0.07 0.06 0.05 0.04 0.04 0.04 0.04 0.06 0.05 0.03 0.03 0.03 0.02 0.01 0.01 0.01 0.02 0.03 0.04 0.03 0.03 0.04 0.04 0.05 0.06
0.00 0.00 0.00 0.00 0.00 0.00 0.01 0.01 0.01 0.03 0.05 0.05 0.03 0.02 0.02 0.02 0.04 0.07 0.06 0.06 0.06 0.05 0.04 0.03 0.03 0.03 0.03 0.03 0.03 0.03 0.04 0.03 0.02 0.02 0.01 0.01 0.02 0.03 0.03 0.02 0.03 0.04 0.06 0.07
0.01 0.01 0.00 0.00 0.01 0.01 0.00 0.01 0.01 0.03 0.04 0.05 0.04 0.03 0.03 0.03 0.04 0.07 0.05 0.05 0.04 0.04 0.04 0.03 0.03 0.02 0.02 0.02 0.02 0.03 0.03 0.03 0.03 0.04 0.04 0.04 0.04 0.03 0.03 0.02 0.03 0.04 0.05 0.06
0.02 0.02 0.02 0.02 0.02 0.02 0.01 0.01 0.02 0.04 0.06 0.07 0.07 0.07 0.06 0.04 0.04 0.06 0.08 0.05 0.04 0.04 0.03 0.03 0.03 0.03 0.03 0.03 0.03 0.04 0.04 0.05 0.04 0.05 0.06 0.06 0.06 0.04 0.04 0.03 0.04 0.04 0.05 0.05
0.04 0.03 0.05 0.04 0.04 0.03 0.03 0.02 0.04 0.04 0.05 0.08 0.07 0.07 0.06 0.05 0.05 0.06 0.06 0.05 0.04 0.04 0.03 0.03 0.03 0.03 0.03 0.03 0.03 0.03 0.04 0.05 0.06 0.05 0.04 0.04 0.05 0.06 0.06 0.05 0.05 0.04 0.04 0.05
0.06 0.08 0.10 0.12 0.10 0.08 0.09 0.08 0.06 0.05 0.05 0.09 0.10 0.07 0.06 0.05 0.05 0.06 0.05 0.04 0.04 0.03 0.02 0.02 0.02 0.03 0.04 0.03 0.03 0.04 0.05 0.06 0.06 0.04 0.03 0.03 0.04 0.04 0.04 0.04 0.04 0.04 0.03 0.05
0.08 0.12 0.17 0.19 0.18 0.14 0.12 0.12 0.08 0.06 0.04 0.05 0.06 0.08 0.07 0.06 0.05 0.05 0.06 0.04 0.03 0.03 0.02 0.03 0.03 0.03 0.04 0.04 0.05 0.05 0.06 0.06 0.05 0.04 0.04 0.04 0.03 0.04 0.05 0.04 0.04 0.03 0.03 0.04
MSLP
1011.20 1011.96 1012.50 1012.81 1012.90 1012.82 1012.62 1012.35 1012.03 1011.68 1011.30 1010.91 1010.49 1010.07 1009.67 1009.31 1009.05 1008.90 1008.88 1008.99 1009.21 1009.51 1009.85 1010.20 1010.53 1010.84 1011.12 1011.40 1011.70 1012.03 1012.41 1012.84 1013.29 1013.75 1014.18 1014.57 1014.89 1015.15 1015.36 1015.54 1015.71 1015.90 1016.13 1016.41
1011.76 1012.28 1012.57 1012.65 1012.60 1012.46 1012.31 1012.17 1012.04 1011.90 1011.71 1011.44 1011.07 1010.61 1010.10 1009.59 1009.15 1008.85 1008.72 1008.78 1009.01 1009.36 1009.76 1010.18 1010.55 1010.87 1011.13 1011.36 1011.61 1011.90 1012.26 1012.71 1013.21 1013.73 1014.24 1014.68 1015.03 1015.28 1015.43 1015.53 1015.60 1015.69 1015.84 1016.06
1012.07 1012.34 1012.38 1012.26 1012.09 1011.94 1011.89 1011.93 1012.04 1012.15 1012.17 1012.05 1011.73 1011.24 1010.60 1009.92 1009.30 1008.83 1008.57 1008.56 1008.77 1009.15 1009.63 1010.10 1010.53 1010.87 1011.12 1011.33 1011.53 1011.79 1012.14 1012.60 1013.14 1013.72 1014.28 1014.77 1015.15 1015.38 1015.49 1015.51 1015.50 1015.50 1015.56 1015.72
1012.12 1012.15 1011.98 1011.71 1011.49 1011.39 1011.49 1011.77 1012.16 1012.54 1012.79 1012.82 1012.55 1012.01 1011.24 1010.37 1009.54 1008.87 1008.45 1008.34 1008.51 1008.89 1009.41 1009.94 1010.42 1010.80 1011.06 1011.26 1011.44 1011.67 1012.01 1012.46 1013.02 1013.63 1014.24 1014.77 1015.17 1015.41 1015.49 1015.47 1015.39 1015.32 1015.31 1015.42
1011.92 1011.76 1011.44 1011.10 1010.90 1010.93 1011.24 1011.79 1012.48 1013.14 1013.62 1013.77 1013.54 1012.93 1012.02 1010.94 1009.87 1008.98 1008.37 1008.12 1008.22 1008.58 1009.12 1009.71 1010.23 1010.65 1010.94 1011.14 1011.30 1011.51 1011.82 1012.26 1012.82 1013.45 1014.08 1014.64 1015.07 1015.32 1015.41 1015.36 1015.25 1015.14 1015.09 1015.15
1011.55 1011.25 1010.85 1010.52 1010.40 1010.62 1011.18 1012.02 1013.00 1013.92 1014.59 1014.85 1014.64 1013.94 1012.86 1011.57 1010.26 1009.14 1008.34 1007.94 1007.94 1008.27 1008.81 1009.42 1010.00 1010.45 1010.77 1010.98 1011.14 1011.32 1011.60 1012.01 1012.55 1013.17 1013.81 1014.39 1014.84 1015.12 1015.22 1015.19 1015.08 1014.96 1014.89 1014.92
1011.08 1010.70 1010.29 1010.02 1010.05 1010.47 1011.28 1012.39 1013.63 1014.76 1015.57 1015.91 1015.68 1014.89 1013.66 1012.17 1010.66 1009.33 1008.35 1007.81 1007.72 1008.00 1008.53 1009.16 1009.77 1010.27 1010.61 1010.83 1010.98 1011.14 1011.38 1011.75 1012.25 1012.84 1013.46 1014.03 1014.50 1014.80 1014.94 1014.94 1014.85 1014.73 1014.66 1014.67
1010.58 1010.17 1009.79 1009.63 1009.82 1010.44 1011.47 1012.79 1014.21 1015.48 1016.39 1016.75 1016.49 1015.62 1014.27 1012.64 1010.97 1009.50 1008.39 1007.75 1007.59 1007.83 1008.35 1009.00 1009.63 1010.16 1010.52 1010.75 1010.89 1011.02 1011.22 1011.53 1011.97 1012.51 1013.09 1013.64 1014.10 1014.42 1014.58 1014.60 1014.53 1014.43 1014.36 1014.35
1010.11 1009.70 1009.39 1009.34 1009.67 1010.45 1011.63 1013.08 1014.59 1015.92 1016.84 1017.19 1016.89 1015.97 1014.57 1012.87 1011.15 1009.62 1008.46 1007.78 1007.58 1007.81 1008.32 1008.98 1009.63 1010.17 1010.55 1010.79 1010.92 1011.03 1011.18 1011.43 1011.80 1012.26 1012.78 1013.28 1013.71 1014.01 1014.17 1014.19 1014.13 1014.02 1013.93 1013.90
1009.68 1009.31 1009.08 1009.13 1009.57 1010.43 1011.67 1013.14 1014.64 1015.93 1016.80 1017.11 1016.78 1015.86 1014.47 1012.82 1011.14 1009.66 1008.55 1007.91 1007.73 1007.96 1008.48 1009.13 1009.78 1010.33 1010.72 1010.96 1011.08 1011.17 1011.28 1011.47 1011.77 1012.15 1012.59 1013.01 1013.37 1013.62 1013.73 1013.73 1013.63 1013.49 1013.35 1013.27
1009.33 1009.01 1008.85 1008.97 1009.46 1010.33 1011.53 1012.91 1014.29 1015.46 1016.23 1016.47 1016.13 1015.26 1013.98 1012.47 1010.96 1009.64 1008.67 1008.13 1008.02 1008.29 1008.81 1009.45 1010.09 1010.62 1011.01 1011.24 1011.37 1011.44 1011.53 1011.68 1011.91 1012.21 1012.55 1012.87 1013.13 1013.29 1013.32 1013.23 1013.05 1012.83 1012.62 1012.45
1009.04 1008.79 1008.70 1008.86 1009.35 1010.15 1011.22 1012.43 1013.61 1014.59 1015.21 1015.38 1015.05 1014.28 1013.17 1011.89 1010.64 1009.57 1008.81 1008.43 1008.42 1008.73 1009.25 1009.87 1010.47 1010.98 1011.35 1011.58 1011.72 1011.80 1011.89 1012.02 1012.20 1012.44 1012.68 1012.89 1013.03 1013.06 1012.96 1012.74 1012.45 1012.11 1011.79 1011.52
1008.82 1008.65 1008.62 1008.81 1009.24 1009.93 1010.81 1011.78 1012.70 1013.45 1013.90 1013.99 1013.69 1013.05 1012.17 1011.18 1010.24 1009.47 1008.96 1008.77 1008.88 1009.23 1009.74 1010.31 1010.86 1011.32 1011.67 1011.91 1012.07 1012.19 1012.30 1012.44 1012.61 1012.80 1012.96 1013.06 1013.07 1012.95 1012.70 1012.34 1011.89 1011.42 1010.97 1010.59
1008.69 1008.60 1008.63 1008.81 1009.18 1009.71 1010.36 1011.06 1011.70 1012.20 1012.47 1012.48 1012.21 1011.72 1011.09 1010.41 1009.80 1009.35 1009.11 1009.10 1009.31 1009.69 1010.17 1010.68 1011.16 1011.58 1011.90 1012.16 1012.36 1012.53 1012.71 1012.89 1013.08 1013.24 1013.35 1013.36 1013.24 1012.99 1012.58 1012.07 1011.48 1010.86 1010.28 1009.80
1008.66 1008.65 1008.72 1008.89 1009.17 1009.53 1009.95 1010.37 1010.73 1010.98 1011.07 1011.00 1010.77 1010.43 1010.04 1009.66 1009.37 1009.20 1009.20 1009.36 1009.65 1010.04 1010.48 1010.92 1011.32 1011.68 1011.99 1012.27 1012.53 1012.79 1013.06 1013.32 1013.56 1013.74 1013.82 1013.76 1013.55 1013.18 1012.65 1012.00 1011.29 1010.56 1009.88 1009.31
1008.75 1008.79 1008.89 1009.04 1009.22 1009.42 1009.61 1009.76 1009.86 1009.87 1009.80 1009.66 1009.46 1009.25 1009.07 1008.95 1008.93 1009.01 1009.21 1009.49 1009.84 1010.22 1010.60 1010.97 1011.31 1011.62 1011.93 1012.25 1012.59 1012.95 1013.32 1013.69 1014.00 1014.22 1014.31 1014.23 1013.97 1013.52 1012.91 1012.18 1011.39 1010.59 1009.86 1009.24
1008.97 1009.03 1009.12 1009.22 1009.30 1009.33 1009.32 1009.24 1009.09 1008.90 1008.69 1008.48 1008.30 1008.20 1008.18 1008.27 1008.46 1008.74 1009.09 1009.47 1009.85 1010.21 1010.54 1010.85 1011.13 1011.43 1011.75 1012.12 1012.54 1013.02 1013.51 1013.99 1014.39 1014.68 1014.81 1014.74 1014.47 1014.00 1013.36 1012.61 1011.80 1011.00 1010.27 1009.66
1009.29 1009.33 1009.37 1009.39 1009.35 1009.23 1009.03 1008.74 1008.41 1008.05 1007.72 1007.45 1007.29 1007.26 1007.36 1007.61 1007.96 1008.38 1008.83 1009.28 1009.68 1010.03 1010.33 1010.60 1010.86 1011.15 1011.50 1011.93 1012.45 1013.03 1013.64 1014.22 1014.72 1015.08 1015.27 1015.24 1015.00 1014.57 1013.97 1013.27 1012.52 1011.78 1011.12 1010.58
1009.71 1009.65 1009.59 1009.49 1009.32 1009.05 1008.68 1008.23 1007.74 1007.26 1006.84 1006.54 1006.39 1006.41 1006.61 1006.96 1007.42 1007.94 1008.47 1008.97 1009.40 1009.75 1010.04 1010.30 1010.56 1010.88 1011.27 1011.77 1012.36 1013.03 1013.73 1014.40 1014.98 1015.41 1015.66 1015.70 1015.54 1015.18 1014.68 1014.09 1013.47 1012.86 1012.32 1011.90
1010.15 1009.95 1009.74 1009.49 1009.16 1008.74 1008.23 1007.65 1007.06 1006.50 1006.04 1005.72 1005.59 1005.66 1005.92 1006.35 1006.90 1007.49 1008.08 1008.62 1009.08 1009.45 1009.76 1010.04 1010.33 1010.68 1011.13 1011.68 1012.33 1013.06 1013.82 1014.54 1015.18 1015.67 1015.98 1016.10 1016.02 1015.79 1015.43 1015.00 1014.55 1014.12 1013.75 1013.48
1010.57 1010.18 1009.79 1009.36 1008.87 1008.31 1007.69 1007.02 1006.37 1005.78 1005.31 1005.01 1004.92 1005.04 1005.36 1005.86 1006.46 1007.10 1007.74 1008.32 1008.81 1009.23 1009.58 1009.89 1010.23 1010.62 1011.11 1011.70 1012.38 1013.14 1013.91 1014.66 1015.31 1015.84 1016.20 1016.40 1016.44 1016.34 1016.15 1015.91 1015.66 1015.44 1015.27 1015.18
1010.92 1010.33 1009.74 1009.13 1008.48 1007.80 1007.09 1006.38 1005.72 1005.15 1004.72 1004.47 1004.44 1004.62 1005.00 1005.55 1006.19 1006.87 1007.55 1008.16 1008.70 1009.15 1009.54 1009.91 1010.29 1010.72 1011.23 1011.83 1012.52 1013.26 1014.02 1014.75 1015.40 1015.94 1016.35 1016.62 1016.77 1016.82 1016.81 1016.77 1016.74 1016.73 1016.76 1016.83
1011.17 1010.38 1009.60 1008.82 1008.05 1007.28 1006.53 1005.83 1005.20 1004.69 1004.34 1004.18 1004.23 1004.48 1004.92 1005.50 1006.18 1006.88 1007.57 1008.21 1008.78 1009.26 1009.69 1010.09 1010.50 1010.95 1011.47 1012.06 1012.71 1013.42 1014.13 1014.82 1015.45 1015.99 1016.43 1016.77 1017.03 1017.23 1017.39 1017.54 1017.71 1017.90 1018.11 1018.34
1011.29 1010.33 1009.40 1008.50 1007.65 1006.84 1006.10 1005.44 1004.89 1004.49 1004.25 1004.20 1004.35 1004.67 1005.16 1005.77 1006.46 1007.17 1007.86 1008.50 1009.07 1009.57 1010.01 1010.43 1010.84 1011.29 1011.79 1012.35 1012.96 1013.60 1014.25 1014.89 1015.48 1016.02 1016.49 1016.89 1017.25 1017.58 1017.89 1018.22 1018.56 1018.91 1019.28 1019.64
1011.27 1010.21 1009.19 1008.22 1007.34 1006.54 1005.85 1005.28 1004.86 1004.59 1004.49 1004.56 1004.80 1005.20 1005.73 1006.35 1007.03 1007.72 1008.38 1008.99 1009.54 1010.03 1010.46 1010.87 1011.28 1011.70 1012.17 1012.67 1013.22 1013.80 1014.39 1014.97 1015.53 1016.06 1016.56 1017.02 1017.47 1017.91 1018.35 1018.81 1019.29 1019.77 1020.24 1020.69
1011.12 1010.02 1008.97 1008.01 1007.15 1006.42 1005.83 1005.38 1005.10 1004.98 1005.01 1005.21 1005.54 1006.00 1006.55 1007.18 1007.83 1008.47 1009.08 1009.65 1010.15 1010.60 1011.00 1011.38 1011.76 1012.15 1012.56 1013.02 1013.50 1014.02 1014.55 1015.09 1015.63 1016.16 1016.68 1017.20 1017.72 1018.25 1018.79 1019.35 1019.92 1020.48 1021.01 1021.50
Thickness
5809 5791 5780 5786 5791 5791 5791 5787 5786 5804 5828 5823 5815 5814 5820 5827 5825 5820 5816 5814 5811 5809 5809 5807 5803 5798 5792 5787 5782 5777 5772 5768 5764 5759 5753 5748 5745 5745 5744 5743 5743 5742 5742 5742
5787 5781 5796 5802 5803 5798 5792 5784 5788 5804 5825 5821 5812 5811 5820 5824 5823 5822 5818 5814 5811 5808 5805 5803 5800 5796 5790 5785 5781 5776 5772 5769 5765 5761 5756 5752 5747 5744 5744 5743 5741 5741 5741 5741
5775 5791 5807 5801 5795 5790 5789 5786 5791 5797 5812 5815 5807 5792 5803 5816 5822 5821 5821 5819 5816 5811 5805 5801 5796 5792 5788 5783 5780 5777 5772 5769 5766 5761 5755 5750 5745 5742 5739 5739 5739 5740 5740 5740
5782 5799 5801 5796 5793 5794 5780 5803 5804 5802 5789 5776 5790 5761 5785 5800 5805 5810 5813 5812 5811 5810 5806 5800 5795 5789 5786 5783 5781 5776 5771 5768 5765 5761 5755 5749 5743 5739 5739 5740 5740 5740 5740 5740
5780 5797 5794 5790 5799 5803 5796 5812 5807 5801 5786 5772 5777 5762 5770 5790 5790 5798 5805 5808 5807 5807 5804 5799 5796 5791 5787 5784 5780 5775 5770 5766 5763 5760 5756 5750 5745 5743 5741 5740 5739 5738 5738 5738
5787 5804 5803 5802 5812 5813 5812 5805 5792 5777 5763 5747 5763 5758 5758 5777 5790 5797 5801 5803 5803 5803 5802 5797 5794 5789 5785 5783 5778 5774 5769 5765 5762 5759 5755 5751 5746 5743 5740 5738 5736 5736 5736 5736
5771 5789 5805 5811 5798 5805 5801 5766 5738 5737 5726 5734 5761 5758 5760 5790 5803 5804 5801 5800 5801 5800 5797 5793 5788 5785 5782 5780 5776 5772 5767 5763 5761 5758 5754 5752 5748 5745 5742 5739 5737 5735 5734 5734
5747 5756 5791 5805 5797 5786 5785 5765 5733 5722 5720 5732 5755 5752 5769 5796 5805 5808 5806 5801 5797 5793 5792 5791 5788 5784 5781 5778 5774 5770 5766 5762 5760 5757 5754 5752 5749 5746 5743 5741 5739 5737 5736 5736
5745 5754 5796 5809 5813 5800 5781 5768 5766 5740 5735 5729 5737 5757 5776 5792 5794 5797 5798 5796 5791 5790 5789 5787 5785 5782 5779 5775 5772 5769 5765 5761 5758 5756 5754 5750 5748 5746 5744 5742 5740 5738 5737 5737
5761 5754 5781 5803 5809 5805 5797 5783 5751 5734 5719 5714 5732 5745 5751 5772 5778 5785 5787 5787 5788 5787 5785 5783 5780 5778 5776 5774 5771 5768 5764 5761 5758 5755 5753 5750 5748 5746 5744 5741 5738 5737 5736 5736
5767 5751 5763 5778 5782 5780 5784 5777 5759 5737 5731 5717 5715 5735 5777 5779 5781 5783 5784 5785 5785 5783 5782 5780 5777 5776 5774 5771 5769 5765 5762 5759 5756 5753 5751 5749 5746 5745 5742 5739 5738 5736 5735 5734
5768 5750 5742 5761 5789 5800 5790 5778 5760 5738 5733 5728 5721 5738 5789 5789 5789 5787 5784 5783 5782 5780 5779 5777 5775 5773 5770 5768 5765 5763 5760 5757 5754 5752 5750 5747 5745 5743 5741 5738 5736 5735 5733 5731
5768 5744 5729 5738 5759 5782 5783 5781 5772 5756 5739 5726 5722 5742 5785 5786 5786 5786 5782 5780 5778 5776 5774 5773 5771 5769 5766 5763 5762 5759 5757 5755 5753 5750 5747 5744 5742 5740 5738 5736 5735 5732 5730 5728
5779 5745 5736 5732 5744 5766 5772 5779 5776 5755 5734 5731 5739 5751 5769 5775 5777 5778 5778 5777 5775 5773 5771 5768 5765 5763 5762 5760 5758 5756 5754 5753 5750 5747 5744 5741 5739 5738 5736 5734 5732 5730 5728 5725
5766 5746 5752 5758 5770 5777 5775 5778 5778 5765 5756 5747 5752 5758 5768 5775 5780 5780 5779 5776 5773 5769 5766 5763 5760 5758 5757 5756 5755 5755 5752 5751 5748 5745 5741 5739 5738 5736 5733 5730 5728 5726 5724 5723
5749 5745 5750 5755 5769 5772 5770 5777 5779 5777 5774 5766 5764 5761 5778 5782 5781 5779 5777 5775 5770 5768 5765 5762 5758 5756 5754 5754 5753 5752 5749 5747 5745 5741 5738 5737 5735 5732 5729 5726 5724 5721 5719 5717
5734 5734 5729 5730 5751 5756 5747 5768 5774 5775 5779 5773 5760 5767 5776 5773 5775 5775 5775 5774 5770 5767 5764 5760 5756 5753 5752 5751 5751 5748 5745 5743 5740 5738 5735 5733 5731 5728 5725 5723 5720 5717 5714 5712
5729 5722 5714 5718 5732 5719 5744 5778 5782 5776 5777 5781 5780 5779 5779 5778 5776 5776 5777 5773 5769 5767 5763 5757 5753 5750 5749 5749 5747 5744 5741 5738 5735 5732 5730 5728 5726 5723 5720 5717 5715 5712 5710 5707
5730 5720 5708 5702 5706 5719 5749 5770 5775 5766 5760 5775 5774 5773 5772 5773 5768 5763 5770 5771 5768 5764 5761 5756 5752 5749 5746 5744 5742 5739 5734 5732 5729 5726 5724 5722 5720 5717 5714 5711 5709 5706 5704 5701
5722 5717 5705 5698 5700 5701 5734 5767 5780 5766 5742 5767 5770 5768 5767 5766 5748 5749 5762 5764 5762 5758 5755 5751 5748 5745 5741 5739 5737 5732 5728 5725 5722 5720 5718 5716 5714 5711 5707 5704 5702 5699 5696 5692
5697 5698 5695 5693 5695 5708 5742 5763 5767 5734 5734 5761 5765 5764 5763 5758 5756 5756 5757 5756 5754 5752 5748 5746 5742 5737 5734 5733 5730 5725 5721 5718 5716 5714 5711 5708 5706 5703 5700 5697 5694 5691 5688 5683
5679 5680 5683 5684 5686 5698 5740 5749 5741 5738 5752 5756 5758 5758 5755 5752 5751 5749 5748 5746 5744 5742 5739 5737 5733 5728 5726 5725 5722 5717 5713 5711 5709 5706 5702 5699 5696 5694 5691 5688 5684 5681 5678 5673
5670 5674 5677 5683 5689 5712 5730 5737 5744 5748 5747 5748 5748 5749 5748 5743 5739 5739 5737 5735 5734 5732 5730 5727 5723 5719 5717 5715 5713 5708 5704 5703 5700 5697 5693 5689 5686 5683 5681 5678 5675 5671 5667 5664
5665 5675 5676 5679 5691 5705 5719 5729 5735 5740 5742 5743 5743 5742 5739 5734 5730 5729 5726 5723 5722 5720 5719 5716 5713 5709 5706 5704 5703 5700 5696 5694 5691 5686 5682 5679 5676 5673 5670 5668 5665 5661 5657 5653
5654 5662 5665 5670 5681 5693 5703 5711 5718 5725 5729 5730 5731 5730 5727 5725 5722 5720 5716 5714 5711 5709 5708 5706 5702 5699 5696 5694 5691 5689 5687 5684 5680 5676 5672 5668 5665 5661 5657 5654 5650 5648 5646 5644
5647 5650 5653 5658 5671 5677 5685 5699 5708 5711 5713 5715 5715 5713 5713 5713 5709 5708 5705 5703 5700 5698 5696 5693 5690 5688 5685 5683 5680 5678 5677 5675 5671 5666 5661 5658 5654 5651 5647 5642 5636 5632 5632 5630